Location: Saint-Maurice-d�Ard�che
(44.5216°N, 4.4002°E)
Time: 16:02:16
(UTC+00:00)

Cosmos 2278 Rocket - Pass Details

Date: 30 March 2020
Orbit: 839 x 847 km, 71.0° (Epoch: 05 June)

Event Time Altitude Azimuth Distance (km) Brightness Sun altitude
Rises 19:06:28 0° 325° (NW) 3,412 6.3 -11.0°
Reaches altitude 10° 19:09:09 10° 316° (NW) 2,474 5.7 -11.5°
Maximum altitude 19:14:03 31° 256° (WSW) 1,456 4.1 -12.3°
Drops below altitude 10° 19:18:55 10° 196° (SSW) 2,462 4.6 -13.1°
Sets 19:21:36 0° 186° (S) 3,393 5.2 -13.6°
